Weather History for KTQE - July, 2012

Change the Weather History Date:

Tuesday, July 17, 2012

  Actual Average Record
Temperature  
Mean Temperature 84 °F -  
Max Temperature 100 °F 89 °F 102 °F (1954)
Min Temperature 70 °F 65 °F 55 °F (1976)
Cooling Degree Days 20    
Growing Degree Days 34 (Base 50)    
Moisture  
Dew Point 68 °F    
Average Humidity 62    
Maximum Humidity 87    
Minimum Humidity 32    
Precipitation  
Precipitation 0.00 in - - ()
Sea Level Pressure  
Sea Level Pressure 29.76 in    
Wind  
Wind Speed 5 mph (SSE)    
Max Wind Speed 13 mph    
Max Gust Speed 20 mph    
Visibility 9 miles    
Events      
Averages and records for this station are not official NWS values.
T = Trace of Precipitation, MM = Missing Value Source: NWS Daily Summary

Daily Weather History Graph

Daily Weather History Graph

Search for Another Location

Airport or City:

Trip Planner

Search our weather history database for the weather conditions in past years. The results will help you decide how hot, cold, wet, or windy it might be!

Date:

Astronomy

Jul. 17, 2012 Rise Set
Actual Time 6:05 AM CDT 8:56 PM CDT
Civil Twilight 5:32 AM CDT 9:28 PM CDT
Nautical Twilight 4:50 AM CDT 10:10 PM CDT
Astronomical Twilight 4:02 AM CDT 10:58 PM CDT
Moon 4:43 AM CDT (7/17) 7:46 PM CDT (7/17)
Length of Visible Light 15h 56m
Length of Day
14h 50m
Waning Crescent, 2% of the Moon is Illuminated
Jul 17
Waning Crescent
Jul 18
New
Jul 26
First Quarter
Aug 1
Full
Aug 9
Last Quarter

Hourly Weather History & Observations

Time (CDT) Temp. Heat Index Dew Point Humidity Pressure Visibility Wind Dir Wind Speed Gust Speed Precip Events Conditions
12:54 AM 73.0 °F - 68.0 °F 84% 29.77 in 8.0 mi Calm Calm - N/A   Clear
1:54 AM 72.0 °F - 66.9 °F 84% 29.77 in 8.0 mi Calm Calm - N/A   Clear
2:54 AM 72.0 °F - 66.9 °F 84% 29.76 in 8.0 mi SE 3.5 mph - N/A   Clear
3:54 AM 70.0 °F - 66.0 °F 87% 29.75 in 7.0 mi SSE 3.5 mph - N/A   Clear
4:54 AM 72.0 °F - 66.9 °F 84% 29.75 in 8.0 mi SE 6.9 mph - N/A   Clear
5:54 AM 71.1 °F - 66.0 °F 84% 29.76 in 8.0 mi SE 5.8 mph - N/A   Clear
6:54 AM 72.0 °F - 66.9 °F 84% 29.76 in 7.0 mi SE 4.6 mph - N/A   Partly Cloudy
7:54 AM 77.0 °F - 68.0 °F 74% 29.77 in 7.0 mi SE 4.6 mph - N/A   Clear
8:54 AM 82.9 °F 85.4 °F 66.9 °F 58% 29.78 in 9.0 mi South 9.2 mph - N/A   Unknown
9:54 AM 87.1 °F 89.9 °F 66.9 °F 51% 29.78 in 10.0 mi SSW 9.2 mph - N/A   Clear
10:54 AM 89.1 °F 92.9 °F 68.0 °F 50% 29.78 in 10.0 mi SSE 9.2 mph - N/A   Clear
11:54 AM 91.0 °F 95.6 °F 69.1 °F 48% 29.78 in 10.0 mi SSE 10.4 mph - N/A   Clear
12:54 PM 93.9 °F 99.1 °F 69.1 °F 44% 29.78 in 10.0 mi South 10.4 mph 19.6 mph N/A   Clear
1:54 PM 95.0 °F 101.3 °F 70.0 °F 44% 29.77 in 10.0 mi South 10.4 mph - N/A   Clear
2:54 PM 98.1 °F 103.0 °F 68.0 °F 37% 29.76 in 10.0 mi SSE 9.2 mph - N/A   Clear
3:54 PM 99.0 °F 103.5 °F 66.9 °F 35% 29.75 in 10.0 mi South 12.7 mph 17.3 mph N/A   Clear
4:54 PM 99.0 °F 101.7 °F 64.0 °F 32% 29.73 in 10.0 mi South 11.5 mph - N/A   Clear
5:54 PM 98.1 °F 101.2 °F 64.9 °F 34% 29.72 in 10.0 mi South 6.9 mph - N/A   Clear
6:54 PM 96.1 °F 102.9 °F 70.0 °F 43% 29.72 in 10.0 mi SE 6.9 mph - N/A   Partly Cloudy
7:54 PM 91.9 °F 100.7 °F 73.0 °F 54% 29.72 in 9.0 mi SE 5.8 mph - N/A   Clear
8:54 PM 86.0 °F 92.2 °F 72.0 °F 63% 29.74 in 9.0 mi ESE 5.8 mph - N/A   Clear
9:54 PM 84.9 °F 90.1 °F 71.1 °F 63% 29.76 in 10.0 mi ESE 8.1 mph - N/A   Clear
10:54 PM 78.1 °F - 71.1 °F 79% 29.78 in 8.0 mi Calm Calm - N/A   Clear
11:54 PM 78.1 °F - 71.1 °F 79% 29.78 in 9.0 mi SSE 4.6 mph - N/A   Clear